User: anonymous   Login
Location: Namasale
(1.5000°N, 32.6167°E)
Time: 09:30:21
(UTC+00:00)
Language:

Tiros 1 - Orbit

View from above orbital plane
View from above orbital plane
View from above satellite
View from above satellite

Ground track
Ground track

The orbit data is extracted from the following two-line orbital elements,

1 00029U 60002B   21108.83898434 -.00000055  00000-0  22772-4 0  9993
2 00029  48.3797 307.3462 0023629  99.2415 261.1171 14.74420644263600
Epoch (UTC): 18 April 2021 20:08:08
Eccentricity: 0.0023629
inclination: 48.3797°
perigee height: 630 km
apogee height: 663 km
right ascension of ascending node: 307.3462°
argument of perigee: 99.2415°
revolutions per day: 14.74420644
mean anomaly at epoch: 261.1171°
orbit number at epoch: 26360

The dashed part of the orbit path shows where the satellite is in the earth's shadow,  

DLR